• în România
  • Lista ţărilor
  • Pe 7 zile
  • Temperatura apei
  • Hartă satelitară
  • Meteo pe hartă
  • Widget-uri
  • user-avatar
    Intrare

    Meteo pe oră la Franceville

    Astăzi, 25 Mai, Vineri

    Timp Temperatura Precipitaţii Vânt Presiune Umiditate
    00:00 +24°C° 0 mm 1 m/s 731 mmHg 93%
    01:00 +22°C° 0 mm 0 m/s 731 mmHg 95%
    02:00 +22°C° 0 mm 0 m/s 730 mmHg 96%
    03:00 +21°C° 0 mm 0 m/s 730 mmHg 96%
    04:00 +21°C° 0 mm 0 m/s 730 mmHg 97%
    05:00 +21°C° 0 mm 0 m/s 731 mmHg 96%
    06:00 +22°C° 0 mm 0 m/s 731 mmHg 95%
    07:00 +22°C° 0 mm 0 m/s 732 mmHg 94%
    08:00 +26°C° 0 mm 1 m/s 732 mmHg 86%
    09:00 +27°C° 0 mm 1 m/s 732 mmHg 79%
    10:00 +29°C° 0 mm 1 m/s 732 mmHg 71%
    11:00 +30°C° 0,1 mm 1 m/s 732 mmHg 66%
    12:00 +32°C° 0,1 mm 1 m/s 732 mmHg 60%
    13:00 +33°C° 0,1 mm 1 m/s 731 mmHg 54%
    14:00 +33°C° 0,4 mm 1 m/s 731 mmHg 56%
    15:00 +33°C° 0,4 mm 1 m/s 730 mmHg 58%
    16:00 +32°C° 0,4 mm 1 m/s 730 mmHg 60%
    17:00 +30°C° 0,5 mm 1 m/s 730 mmHg 70%
    18:00 +28°C° 0,5 mm 1 m/s 730 mmHg 79%
    19:00 +26°C° 0,5 mm 1 m/s 730 mmHg 89%
    20:00 +26°C° 0 mm 1 m/s 731 mmHg 90%
    21:00 +26°C° 0 mm 1 m/s 731 mmHg 92%
    22:00 +25°C° 0 mm 1 m/s 732 mmHg 93%
    23:00 +25°C° 0 mm 1 m/s 732 mmHg 94%

    Mâine, 26 Mai, Sâmbătă

    Timp Temperatura Precipitaţii Vânt Presiune Umiditate
    00:00 +25°C° 0 mm 1 m/s 731 mmHg 95%
    01:00 +24°C° 0 mm 1 m/s 731 mmHg 95%
    02:00 +24°C° 0 mm 1 m/s 731 mmHg 95%
    03:00 +24°C° 0 mm 1 m/s 730 mmHg 96%
    04:00 +24°C° 0 mm 1 m/s 730 mmHg 96%
    05:00 +24°C° 0 mm 1 m/s 730 mmHg 94%
    06:00 +22°C° 0 mm 0 m/s 731 mmHg 93%
    07:00 +22°C° 0 mm 0 m/s 731 mmHg 92%
    08:00 +25°C° 0 mm 0 m/s 732 mmHg 80%
    09:00 +29°C° 0 mm 1 m/s 732 mmHg 69%
    10:00 +32°C° 0 mm 1 m/s 732 mmHg 58%
    11:00 +33°C° 0 mm 1 m/s 732 mmHg 53%
    12:00 +35°C° 0 mm 1 m/s 731 mmHg 48%
    13:00 +36°C° 0 mm 1 m/s 731 mmHg 43%
    14:00 +36°C° 0 mm 1 m/s 730 mmHg 44%
    15:00 +33°C° 0 mm 0 m/s 729 mmHg 46%
    16:00 +33°C° 0 mm 0 m/s 729 mmHg 47%
    17:00 +31°C° 0 mm 0 m/s 729 mmHg 52%
    18:00 +29°C° 0 mm 0 m/s 730 mmHg 57%
    19:00 +28°C° 0 mm 0 m/s 730 mmHg 62%
    20:00 +29°C° 0,1 mm 1 m/s 731 mmHg 66%
    21:00 +28°C° 0,1 mm 1 m/s 731 mmHg 71%
    22:00 +28°C° 0,1 mm 1 m/s 732 mmHg 76%
    23:00 +27°C° 0,2 mm 1 m/s 731 mmHg 80%

    Poimâine, 27 Mai, Duminică

    Timp Temperatura Precipitaţii Vânt Presiune Umiditate
    00:00 +26°C° 0,2 mm 1 m/s 731 mmHg 84%
    01:00 +26°C° 0,2 mm 1 m/s 731 mmHg 87%
    02:00 +26°C° 0,1 mm 1 m/s 731 mmHg 88%
    03:00 +24°C° 0,1 mm 0 m/s 731 mmHg 88%
    04:00 +24°C° 0,1 mm 0 m/s 730 mmHg 88%
    05:00 +24°C° 0 mm 0 m/s 731 mmHg 88%
    06:00 +24°C° 0 mm 0 m/s 731 mmHg 88%
    07:00 +24°C° 0 mm 0 m/s 732 mmHg 88%
    08:00 +26°C° 0,1 mm 0 m/s 732 mmHg 78%
    09:00 +28°C° 0,1 mm 0 m/s 733 mmHg 68%
    10:00 +33°C° 0,1 mm 1 m/s 733 mmHg 59%
    11:00 +32°C° 0,1 mm 0 m/s 733 mmHg 54%
    12:00 +33°C° 0,1 mm 0 m/s 732 mmHg 48%
    13:00 +34°C° 0,1 mm 0 m/s 731 mmHg 43%
    14:00 +34°C° 0 mm 0 m/s 731 mmHg 45%
    15:00 +35°C° 0 mm 1 m/s 730 mmHg 46%
    16:00 +34°C° 0 mm 1 m/s 730 mmHg 47%
    17:00 +33°C° 0 mm 1 m/s 730 mmHg 53%
    18:00 +31°C° 0 mm 1 m/s 731 mmHg 60%
    19:00 +30°C° 0 mm 1 m/s 731 mmHg 66%
    20:00 +29°C° 1 mm 1 m/s 732 mmHg 73%
    21:00 +28°C° 1 mm 1 m/s 732 mmHg 79%
    22:00 +27°C° 1 mm 1 m/s 733 mmHg 86%
    23:00 +26°C° 1 mm 1 m/s 733 mmHg 88%

    28 Mai, Luni

    Timp Temperatura Precipitaţii Vânt Presiune Umiditate
    00:00 +26°C° 1 mm 1 m/s 733 mmHg 89%
    01:00 +26°C° 1 mm 1 m/s 732 mmHg 91%
    02:00 +25°C° 0,7 mm 1 m/s 732 mmHg 91%
    03:00 +25°C° 0,7 mm 1 m/s 732 mmHg 92%
    04:00 +25°C° 0,7 mm 1 m/s 732 mmHg 93%
    05:00 +25°C° 0 mm 1 m/s 732 mmHg 93%
    06:00 +25°C° 0 mm 1 m/s 733 mmHg 92%
    07:00 +25°C° 0 mm 1 m/s 733 mmHg 92%
    08:00 +27°C° 0,2 mm 1 m/s 733 mmHg 85%
    09:00 +29°C° 0,2 mm 1 m/s 734 mmHg 77%
    10:00 +30°C° 0,2 mm 1 m/s 734 mmHg 69%
    11:00 +31°C° 1,4 mm 1 m/s 733 mmHg 69%
    12:00 +31°C° 1,4 mm 1 m/s 732 mmHg 70%
    13:00 +31°C° 1,4 mm 1 m/s 732 mmHg 70%
    14:00 +31°C° 2 mm 1 m/s 731 mmHg 74%
    15:00 +30°C° 2 mm 1 m/s 731 mmHg 78%
    16:00 +29°C° 2 mm 1 m/s 731 mmHg 82%
    17:00 +28°C° 0,7 mm 1 m/s 731 mmHg 85%
    18:00 +25°C° 0,7 mm 0 m/s 732 mmHg 87%
    19:00 +24°C° 0,7 mm 0 m/s 732 mmHg 89%
    20:00 +24°C° 0,4 mm 0 m/s 733 mmHg 90%
    21:00 +26°C° 0,4 mm 1 m/s 733 mmHg 91%
    22:00 +26°C° 0,4 mm 1 m/s 734 mmHg 91%
    23:00 +25°C° 0 mm 1 m/s 733 mmHg 92%

    29 Mai, Marţi

    Timp Temperatura Precipitaţii Vânt Presiune Umiditate
    00:00 +25°C° 0 mm 1 m/s 733 mmHg 93%
    01:00 +25°C° 0 mm 1 m/s 732 mmHg 94%
    02:00 +25°C° 0 mm 1 m/s 732 mmHg 95%
    03:00 +24°C° 0 mm 1 m/s 732 mmHg 95%
    04:00 +24°C° 0 mm 1 m/s 731 mmHg 96%
    05:00 +24°C° 0,1 mm 1 m/s 732 mmHg 95%
    06:00 +24°C° 0,1 mm 1 m/s 732 mmHg 95%
    07:00 +24°C° 0,1 mm 1 m/s 733 mmHg 95%
    08:00 +26°C° 0 mm 1 m/s 733 mmHg 87%
    09:00 +28°C° 0 mm 1 m/s 733 mmHg 79%
    10:00 +30°C° 0 mm 1 m/s 734 mmHg 70%
    11:00 +31°C° 0 mm 1 m/s 733 mmHg 65%
    12:00 +32°C° 0 mm 1 m/s 732 mmHg 59%
    13:00 +34°C° 0 mm 1 m/s 732 mmHg 53%
    14:00 +33°C° 0,5 mm 1 m/s 731 mmHg 55%
    15:00 +33°C° 0,5 mm 1 m/s 730 mmHg 56%
    16:00 +33°C° 0,5 mm 1 m/s 730 mmHg 58%
    17:00 +31°C° 1 mm 1 m/s 730 mmHg 68%
    18:00 +29°C° 1 mm 1 m/s 731 mmHg 77%
    19:00 +27°C° 1 mm 1 m/s 731 mmHg 87%
    20:00 +27°C° 1,4 mm 1 m/s 732 mmHg 88%
    21:00 +26°C° 1,4 mm 1 m/s 732 mmHg 89%
    22:00 +26°C° 1,4 mm 1 m/s 733 mmHg 90%
    23:00 +24°C° 0,3 mm 0 m/s 732 mmHg 91%

    30 Mai, Miercuri

    Timp Temperatura Precipitaţii Vânt Presiune Umiditate
    00:00 +24°C° 0,3 mm 0 m/s 732 mmHg 93%
    01:00 +23°C° 0,3 mm 0 m/s 732 mmHg 94%
    02:00 +25°C° 0,1 mm 1 m/s 731 mmHg 94%
    03:00 +25°C° 0,1 mm 1 m/s 731 mmHg 95%
    04:00 +25°C° 0,1 mm 1 m/s 731 mmHg 96%
    05:00 +25°C° 0 mm 1 m/s 731 mmHg 95%
    06:00 +23°C° 0 mm 0 m/s 731 mmHg 95%
    07:00 +23°C° 0 mm 0 m/s 732 mmHg 94%
    08:00 +25°C° 0 mm 0 m/s 732 mmHg 84%
    09:00 +27°C° 0 mm 0 m/s 733 mmHg 75%
    10:00 +29°C° 0 mm 0 m/s 733 mmHg 65%
    11:00 +31°C° 0 mm 0 m/s 732 mmHg 61%
    12:00 +32°C° 0 mm 0 m/s 732 mmHg 56%
    13:00 +33°C° 0 mm 0 m/s 731 mmHg 51%
    14:00 +32°C° 0,9 mm 0 m/s 731 mmHg 58%
    15:00 +32°C° 0,9 mm 1 m/s 730 mmHg 64%
    16:00 +31°C° 0,9 mm 1 m/s 730 mmHg 71%
    17:00 +30°C° 1,2 mm 1 m/s 730 mmHg 77%
    18:00 +28°C° 1,2 mm 1 m/s 731 mmHg 82%
    19:00 +25°C° 1,2 mm 0 m/s 731 mmHg 88%
    20:00 +25°C° 1 mm 0 m/s 731 mmHg 89%
    21:00 +26°C° 1 mm 1 m/s 732 mmHg 90%
    22:00 +26°C° 1 mm 1 m/s 732 mmHg 91%
    23:00 +26°C° 1,4 mm 1 m/s 732 mmHg 91%
    Arată mai mult